Location: Trebic
(49.2170°N, 15.8830°E)
Time: 00:32:11
(UTC+02:00)

Transit 2A Rocket - Pass Details

Date: 24 July 2019
Orbit: 591 x 913 km, 66.7° (Epoch: 25 August)

Event Time Altitude Azimuth Distance (km) Brightness Sun altitude
Rises 08:44:54 0° 318° (NW) 3,318 7.9 31.5°
Reaches altitude 10° 08:48:52 10° 346° (NNW) 2,304 7.4 32.1°
Maximum altitude 08:51:16 13° 13° (NNE) 2,052 7.4 32.5°
Drops below altitude 10° 08:53:34 10° 40° (NE) 2,203 7.9 32.9°
Sets 08:57:11 0° 69° (ENE) 3,041 8.9 33.5°
